Weather in Dubrovki

Russia / Penza Oblast     53°49′27″N   43°18′00″E
temp.,
°C
wind,
m/s
gust,
m/s
humid.,
%
clouds,
%
prec.,
mm/h
press.,
hPa
HPBL,
m
22 may, sun
sun2200:00+5ese226971 0.0 100616
03:00+4ese1168100 0.0 100512
06:00+5ne5679100 0.0 1002189
09:00+8ene5672100 0.0 1001658
12:00+11ne546289 0.1 10001450
15:00+10ne5564100 0.2 10001045
18:00+10ne466895 0.0 999844
21:00+5nne611755 0.0 1001368
23 may, mon
mon2300:00+2nne49795 0.0 1002290
03:000n37855 0.0 1002167
06:00+1nnw47715 0.0 1003364
09:00+5nnw565798 0.0 10031401
12:00+6nw6657100 0.1 10031517
15:00+6wnw6759100 0.1 10041623
18:00+7wnw3765100 0.0 10041224
21:00+4sw4979100 0.0 1004183
24 may, tue
tue2400:00+3sw51184100 0.0 1004229
03:00+2wsw51091100 0.0 1004201
06:00+5w61276100 0.0 1004495
09:00+8wnw5851100 0.0 10041183
12:00+6nnw6676100 0.2 1006767
15:00+6w468483 0.8 1007721
18:00+6wnw357494 0.5 1008675
21:00+4nnw3586100 0.6 1010103
25 may, wed
wed2500:00+1nnw34925 0.0 101166
03:000nw33915 0.0 101359
06:00+2nw35815 0.0 1014216
09:00+7nw456345 0.0 10141235
12:00+7nw4557100 0.1 10141331
15:00+8nw456077 0.3 10151322
18:00+8wnw456445 0.1 1016961
21:00+4w36785 0.1 101679
26 may, thu
thu2600:00+3wsw488197 0.0 1016162
03:00+2wsw378562 0.0 1016128
06:00+4wsw477887 0.0 1015205
09:00+9sw566460 0.0 1013773
12:00+12sw786799 0.0 10111225
15:00+16wsw586756 0.1 10081264
18:00+12wsw71492100 1.9 1006648
21:00+11ssw41194100 2.9 1004352